星链-2061 (STARLINK-2061 )

导读 | 豆包AI

STARLINK-2061是美国SpaceX公司星链(Starlink)星座中的一颗通信卫星,于2021年4月29日发射升空,归属美国发射任务。星链项目旨在搭建全球低轨卫星互联网系统,提供覆盖全球的高速互联网接入服务,该卫星工作于近地轨道,配备星链标准的相控阵天线与自主碰撞规避系统,为全球网络覆盖提供通信支撑,是星链大规模组网中的组成单元之一。

基本信息
目录编号:
48312
目录名称:
STARLINK-2061
国际标识:
2021-036AN
轨道中心:
EARTH
卫星名称:
星链-2061
卫星全名:
星链-2061 (STARLINK-2061 )
卫星状态:
在轨 (已飞行1780 天)
发射日期:
2021-04-29 UTC
国别 :
美国 (US)
星等 :
--
轨道信息
数据来源 国际轨道数据
星历时间: 2026-03-13T17:56:28+0800
1天前
查看轨道信息
半长轴: 6853.273km
偏心率: 0.0001268
轨道倾角: 53.159°
近地点辐角 142.551°
升交点赤经 71.105°
平近点角 217.558°
近地点: 474.267km
远地点: 476.005km
周期: 94.104分钟
每日圈数: 15.302267
详细信息
固有亮度:
5
最大亮度:
2.5
卫星平台:
Starlink V1.0
覆盖范围:
全球
运营商:
太空探索技术公司
运营商所在国:
美国
制造商(研发单位):
太空探索技术公司
制造商所在国:
美国
使用方式:
暂无
卫星简介
星链(Starlink)计划是由太空探索技术公司(SpaceX)提出的一个巨型低轨卫星互联网星座项目,计划在2019年至2024年间在太空搭建由约1.2万颗卫星组成的“星链”网络,其中1584颗将部署在地球上空550千米处的近地轨道,并从2020年开始工作。该卫星仍在工作。
2D轨道图
3D轨道图
轨道高度分析图
轨道倾角分析图
轨道综合分析图
查看轨道综合分析图